Location: Le Castellard
(44.1862°N, 6.1301°E)
Time: 22:37:09
(UTC+00:00)

Cosmos 2369 - Pass Details

Date: 18 January 2020
Orbit: 839 x 856 km, 71.0° (Epoch: 16 February)

Event Time Altitude Azimuth Distance (km) Brightness Sun altitude
Exits shadow 04:48:19 - 200° (SSW) 3,446 6.7 -24.3°
Rises 04:48:25 0° 200° (SSW) 3,406 6.7 -24.3°
Reaches altitude 10° 04:50:51 10° 200° (SSW) 2,476 6.0 -23.9°
Maximum altitude 04:56:33 82° 113° (ESE) 868 3.7 -22.9°
Drops below altitude 10° 05:02:18 10° 27° (NNE) 2,497 6.4 -21.8°
Sets 05:04:46 0° 27° (NNE) 3,438 7.1 -21.4°
